Location: Albany
(35.0170°S, 117.8920°E)
Time: 00:26:11
(UTC+08:00)

Explorer 7 - Pass Details

Date: 31 January 2021
Orbit: 484 x 677 km, 50.3° (Epoch: 01 March)

Event Time Altitude Azimuth Distance (km) Brightness Sun altitude
Rises 13:35:19 0° 302° (WNW) 3,008 10.9 65.9°
Reaches altitude 10° 13:37:40 10° 299° (WNW) 2,111 10.3 65.5°
Maximum altitude 13:42:33 63° 218° (SW) 764 8.6 64.8°
Drops below altitude 10° 13:47:27 10° 136° (SE) 2,123 9.7 64.0°
Sets 13:49:50 0° 132° (SE) 3,027 10.3 63.6°
